SCP
0 0 0 0 0 0 0 0 0 0 0 0 0 0 0 0 0 0 0 -0 -0 -0 -0 0 0 0 0 0 0 0 0 0 0 -0 0 0 0 0 -0 -0 0 0 0 0
0 0 0 0 0 0 0 0 0 0 -0 0 0 0 0 0 -0 0 0 0 0 0 -0 -0 -0 0 0 0 0 0 0 0 0 0 0 0 0 0 0 0 0 0 0 0
0 0 0 0 0 0 0 0 0 -0 0 0 -0 -0 -0 -0 0 0 0 0 0 0 0 -0 -0 0 0 0 0 0 0 0 0 0 0 0 0 0 0 0 0 0 0 0
0 0 0 0 0 0 0 0 0 0 0 0 0 -0 0 0 0 0 0 0 0 0 -0 -0 -0 0 0 0 0 0 0 0 0 0 0 0 0 0 0 0 0 0 0 0
0 0 0 0 0 0 0 0 0 0 0 -0 0 0 0 0 -0 0 0 0 0 0 -0 -0 -0 -0 0 0 0 0 0 0 0 0 0 0 0 0 0 0 0 0 0 0
0 0 0 0 0 0 0 0 0 0 0 0 0 -0 0 -0 -0 -0 0 0 0 0 0 0 0 -0 -0 0 0 0 0 0 0 0 0 -0 0 0 0 0 0 0 0 0
0 0 0 0 0 0 0 0 0 0 -0 0 0 -0 -0 -0 -0 -0 0 0 -0 -0 0 -0 -0 -0 -0 0 0 0 0 0 0 0 0 0 0 0 0 0 0 0 0 0
0 0 0 0 0 0 0 0 0 0 0 0 -0 -0 0 -0 -0 -0 0 0 0 0 -0 -0 -0 -0 -0 -0 0 0 0 0 0 0 0 0 0 0 0 0 0 0 0 0
0 0 0 0 0 0 0 0 0 0 0 0 0 0 0 0 -0 0 0 -0 0 -0 -0 -0 -0 -0 -0 0 0 0 0 0 0 0 0 0 0 0 0 0 0 0 0 0
0 0 0 0 0 0 0 0 0 0 0 0 0 0 0 0 0 0 0 0 0 0 0 -0 -0 0 -0 0 0 0 0 0 0 0 0 0 0 0 0 0 0 0 0 0
0 0 0 0 0 0 0 0 0 0 0 0 0 0 0 0 0 0 0 0 0 0 0 0 0 0 -0 -0 -0 0 0 0 0 0 0 0 0 0 0 0 0 0 0 0
0 0 0 0 0 0 0 0 0 0 0 0 0 0 -0 -0 -0 0 -0 0 0 0 0 0 0 0 -0 -0 0 -0 0 0 0 0 0 0 0 0 0 0 0 0 0 0
0 0 0 0 0 0 0 0 0 0 0 0 0 0 0 0 -0 0 0 0 0 0 -0 0 -0 -0 -0 -0 -0 -0 -0 0 0 0 0 0 0 0 0 0 0 0 0 0
0 0 0 0 0 0 0 0 0 0 0 0 0 0 0 0 0 -0 -0 0 0 0 -0 0 -0 -0 -0 -0 -0 -0 -0 0 0 0 0 0 0 0 0 0 0 0 0 0
0 0 0 0 0 0 0 0 0 0 0 0 0 0 0 0 0 0 -0 -0 0 0 0 0 -0 0 0 -0 -0 -0 -0 -0 0 0 0 0 0 0 0 0 0 0 0 0
0 0 0 0 0 0 0 0 0 0 0 0 0 0 0 0 0 0 0 -0 0 0 0 -0 -0 -0 -0 -0 -0 -0 -0 -0 -0 0 0 0 0 0 0 0 0 0 0 0
-0 0 0 0 0 0 0 0 0 0 0 0 0 0 0 0 0 0 0 0 0 -0 0 0 0 0 -0 -0 0 -0 -0 -0 -0 -0 0 0 0 0 0 0 0 0 0 0
-0 0 0 0 0 0 0 0 0 0 0 0 0 0 0 0 0 0 0 0 -0 -0 -0 0 0 0 -0 -0 0 0 0 0 -0 -0 -0 0 0 0 0 0 0 0 0 0
-0 -0 0 0 0 0 0 0 0 0 0 0 0 0 0 0 0 0 0 0 0 0 0 0 0 -0 -0 0 0 0 0 0 0 0 -0 -0 -0 0 0 0 0 0 0 0
0 0 0 0 0 0 0 0 0 0 0 0 0 0 0 0 0 0 0 0 0 0 0 0 0 0 0 0 -0 -0 -0 0 -0 0 0 -0 -0 0 0 0 0 0 0 0
0 0 0 0 0 0 0 0 0 0 0 0 0 0 0 0 0 0 0 0 0 0 0 0 0 0 -0 -0 0 0 0 0 0 -0 0 0 -0 -0 0 0 0 0 0 0
0 0 0 0 0 0 0 0 0 0 0 0 0 0 0 0 0 0 0 0 0 0 0 0 0 0 0 -0 -0 0 0 0 0 0 0 0 0 -0 0 0 0 0 0 0
0 0 0 0 0 0 0 0 0 0 0 0 0 0 0 0 0 0 0 0 0 0 0 0 0 0 0 -0 -0 -0 0 0 0 0 0 0 0 0 0 0 0 0 0 0
0 0 0 0 0 0 0 0 0 0 0 0 0 0 0 0 0 0 0 0 0 0 0 0 0 0 0 -0 -0 -0 -0 0 0 0 0 0 0 0 0 0 0 0 0 0
0 0 0 0 0 0 0 0 0 -0 0 -0 0 0 0 0 0 0 0 0 0 0 0 0 0 0 0 0 0 -0 -0 -0 0 0 0 0 0 0 0 0 0 0 0 0
0 0 0 0 0 0 0 0 0 -0 0 0 0 0 0 -0 0 0 0 0 0 0 0 0 0 0 0 0 0 0 -0 0 0 0 0 0 0 0 0 0 0 0 0 0
0 0 0 0 0 0 0 0 0 0 0 0 0 0 0 0 0 0 0 0 0 0 0 0 0 0 0 0 0 0 -0 -0 0 0 0 0 0 0 0 0 0 0 0 0
Wind_Speed_500mb
60 59 58 51 49 49 37 20 6 18 19 5 2 1 7 9 22 36 23 16 15 17 26 26 14 21 20 49 39 17 46 9 19 34 8 39 36 18 42 22 14 6 12 18
56 57 57 52 50 49 38 25 11 15 34 5 2 6 18 24 28 27 9 11 18 20 22 12 13 21 25 44 38 22 13 32 8 16 3 10 41 38 26 14 9 17 17 16
59 55 53 51 47 44 36 13 7 9 5 4 6 9 14 6 20 21 22 18 18 21 23 20 15 26 20 56 41 28 17 10 55 34 25 16 15 38 29 27 13 11 28 10
59 58 52 47 45 39 31 6 6 9 6 7 14 7 12 17 15 19 26 10 16 19 16 26 32 34 38 32 13 21 14 16 39 58 35 8 13 36 41 34 29 29 16 21
62 58 51 46 43 37 19 9 8 14 19 24 11 10 7 23 15 7 15 11 23 19 15 30 29 23 11 14 12 23 13 12 11 41 58 52 32 18 48 42 19 16 25 13
62 56 48 46 40 33 11 14 24 17 14 7 4 5 17 12 20 24 11 21 14 18 28 25 29 27 18 18 27 17 8 9 13 40 40 41 37 46 20 31 37 24 16 16
62 56 47 42 40 28 23 19 19 5 9 6 7 23 28 28 26 20 31 25 10 13 52 27 16 26 31 23 34 32 14 5 6 12 12 21 26 24 29 31 36 35 15 19
60 56 49 35 34 30 26 15 11 4 8 10 26 24 21 36 39 22 23 37 40 46 20 5 8 8 8 12 35 34 35 14 8 6 28 10 22 17 26 17 19 25 34 21
59 60 51 38 27 28 26 22 21 12 10 9 26 13 27 12 10 11 22 56 51 18 7 5 6 5 8 6 23 21 33 30 8 7 12 27 12 12 16 15 20 20 22 26
61 61 58 40 27 23 29 27 19 27 15 28 18 16 14 13 12 8 15 23 21 20 4 3 5 3 6 3 11 13 4 10 23 10 8 10 11 14 14 27 20 13 42 35
68 65 57 39 30 21 27 30 15 23 20 57 26 14 34 42 20 6 14 13 5 6 6 1 4 3 6 5 5 9 7 9 4 7 9 5 40 12 10 11 14 51 56 59
72 67 50 36 27 25 22 36 19 23 34 57 72 59 28 41 49 31 9 6 7 7 4 5 5 4 2 10 3 9 3 8 11 9 5 23 18 30 41 43 25 18 62 75
76 65 49 34 27 25 26 34 28 27 26 52 10 15 25 31 24 43 13 11 12 7 6 2 4 7 4 3 4 8 10 14 7 23 4 40 38 75 77 75 61 39 44 84
71 65 47 34 25 24 25 28 20 19 17 11 21 43 33 16 20 26 39 40 31 30 17 3 5 6 1 5 9 5 8 6 13 17 21 48 28 71 70 78 66 52 8 46
67 57 42 34 26 20 18 19 4 12 8 9 29 44 17 10 15 23 29 44 49 45 5 5 7 7 3 1 3 6 11 7 2 7 29 21 38 67 66 79 73 55 46 23
59 45 34 28 26 19 15 5 1 5 3 13 8 20 23 14 28 28 30 38 45 36 10 8 11 10 9 5 6 6 16 15 2 12 38 52 57 54 62 71 79 60 38 38
53 32 22 24 25 20 10 8 12 15 22 10 10 9 12 36 28 23 20 10 18 28 18 9 10 15 6 4 5 5 24 26 24 27 32 43 30 52 72 73 75 64 51 30
39 27 25 26 26 26 18 14 16 23 19 10 6 8 13 21 16 13 10 10 9 8 14 4 4 9 1 5 16 38 34 34 21 23 36 44 49 53 66 61 68 70 64 60
35 25 24 13 9 12 25 34 23 15 12 7 6 5 7 18 11 11 16 11 4 14 2 4 7 4 5 15 34 44 52 36 34 36 29 29 30 37 53 60 53 62 60 54
37 16 8 6 14 33 30 9 6 5 5 8 4 8 7 9 6 7 13 9 5 5 3 16 3 3 14 48 46 42 53 61 56 40 17 22 13 27 37 60 44 48 51 44
41 22 8 22 19 8 5 6 5 9 5 7 13 20 10 7 4 5 12 5 6 6 6 10 6 5 22 50 50 49 56 54 53 46 44 30 26 24 38 51 39 43 48 43
38 25 23 16 10 6 6 4 10 2 6 10 9 30 1 2 6 5 8 5 6 5 12 5 4 4 40 52 64 63 59 58 58 46 42 36 28 32 38 39 43 43 27 29
20 7 7 7 6 12 9 8 9 6 7 17 35 13 4 3 8 4 3 6 5 15 3 4 6 33 56 64 65 53 71 59 52 48 43 37 26 37 43 54 57 32 25 18
6 5 9 6 8 3 8 9 10 29 18 46 48 5 6 7 8 5 6 5 4 8 7 6 10 46 65 73 56 49 70 57 46 44 40 33 25 41 45 59 50 44 42 33
6 5 4 6 13 23 37 30 17 37 33 52 13 6 8 6 6 7 8 14 8 7 7 6 47 71 55 64 69 69 62 41 27 26 33 30 22 30 32 55 37 38 45 33
7 11 4 16 4 24 25 17 28 29 31 26 8 7 7 8 3 11 4 12 6 6 7 48 61 50 61 68 68 86 79 29 18 15 24 26 13 6 18 25 41 35 20 15
7 11 23 30 33 28 19 19 20 22 20 5 4 5 4 2 6 6 3 3 8 37 51 46 50 34 48 69 70 75 79 64 36 9 13 24 17 7 16 16 10 10 37 32
Wind_Direction_500mb
354 354 354 352 349 350 352 335 328 339 159 103 262 286 240 307 268 308 294 286 279 297 336 302 295 261 315 358 347 271 203 148 242 243 292 206 210 184 210 221 217 207 172 246
357 356 354 353 351 354 347 327 289 354 177 203 123 310 279 261 279 278 256 260 280 287 295 279 303 282 339 334 348 352 319 215 263 324 183 234 202 207 203 182 119 195 184 239
358 355 352 352 351 353 349 338 328 339 307 154 175 249 267 268 295 296 270 288 286 280 292 257 255 275 306 329 322 345 321 249 209 216 221 178 192 206 190 186 189 171 206 170
356 354 351 346 348 350 351 343 293 346 315 314 304 277 288 294 304 255 277 277 265 254 282 289 253 259 296 327 292 2 2 250 210 220 243 245 206 207 199 198 193 192 189 178
356 353 354 351 350 350 359 316 336 340 292 296 306 306 314 317 309 301 297 298 329 321 253 261 282 259 267 285 301 349 346 293 261 217 229 237 250 263 207 208 190 144 162 206
356 354 352 352 347 349 346 313 316 304 275 292 8 252 333 291 301 293 286 311 317 295 292 291 289 205 207 237 278 301 290 331 336 219 215 233 240 239 225 202 193 149 168 196
352 356 354 357 357 349 337 325 326 325 290 323 282 310 303 323 321 301 305 312 280 276 309 267 243 231 234 239 256 229 234 304 270 251 167 220 237 199 220 209 194 181 165 163
349 351 352 349 353 344 340 328 304 277 278 263 298 329 326 315 310 290 288 305 304 304 293 274 275 251 209 264 258 242 204 194 269 234 195 255 227 202 193 173 217 184 180 182
345 346 346 340 341 337 329 326 306 261 282 256 308 308 306 299 309 317 293 316 320 288 184 174 245 262 120 281 314 292 182 203 201 327 155 215 213 177 179 144 215 186 160 189
345 342 340 335 328 325 323 328 318 268 260 277 288 295 282 277 313 271 303 337 333 354 200 141 250 160 85 141 301 347 199 186 219 236 284 290 236 197 103 180 221 171 182 189
342 341 336 329 322 309 306 315 306 289 271 290 271 258 276 292 266 248 295 333 346 312 343 150 307 208 147 162 232 315 283 321 221 189 228 100 347 297 108 283 256 194 201 193
340 339 335 329 320 308 290 292 313 302 281 278 294 291 276 280 266 253 275 245 221 234 293 2 291 264 164 163 267 140 308 19 308 322 355 310 329 46 359 10 328 242 202 207
342 340 339 328 317 304 292 294 323 315 292 311 279 292 304 310 280 246 222 250 228 225 260 309 291 272 339 231 234 110 212 274 264 332 345 325 353 9 7 10 358 329 224 204
343 341 343 332 309 295 290 291 318 301 297 293 288 315 326 345 339 239 240 263 261 284 285 264 288 232 194 9 0 300 188 270 343 268 332 331 352 1 359 355 1 15 296 205
343 342 346 343 330 315 303 307 290 257 273 278 290 320 326 342 309 276 253 248 254 265 258 165 229 287 31 16 156 266 193 193 178 288 319 295 309 328 334 348 354 8 12 80
342 339 348 355 350 339 335 315 254 203 191 302 301 309 307 330 329 317 260 239 248 231 236 231 242 218 147 164 261 293 152 172 193 253 280 288 304 332 340 344 355 358 0 18
339 328 338 347 346 343 313 310 304 252 295 281 295 283 280 334 323 319 313 269 235 224 233 247 257 277 241 251 242 220 211 235 234 255 299 292 311 328 334 341 353 5 5 9
341 326 318 321 314 319 318 323 297 270 274 260 268 279 336 337 321 329 315 313 303 238 212 254 243 313 204 247 325 344 310 281 295 275 258 285 303 311 322 328 343 356 3 6
342 321 317 319 342 316 330 323 309 280 248 273 277 323 304 313 292 319 327 349 340 325 10 270 143 284 287 357 343 341 333 335 331 315 267 245 295 305 315 324 333 340 350 2
350 342 347 347 335 324 321 320 303 318 249 260 316 290 274 285 299 353 346 350 338 324 199 299 194 151 95 2 345 329 318 314 319 330 319 220 281 305 292 309 310 321 341 356
357 344 324 322 323 323 308 315 26 340 299 250 253 263 285 328 335 345 13 338 326 328 354 343 329 356 340 335 327 328 324 314 300 296 286 284 254 278 256 280 286 316 335 359
327 310 305 336 356 335 32 338 327 331 269 282 254 314 161 65 36 37 8 339 323 299 348 304 263 259 322 321 320 310 317 312 300 283 280 270 263 261 255 265 258 283 307 352
325 312 323 340 339 33 20 331 299 269 249 287 316 320 339 57 29 87 19 340 298 309 289 286 276 304 314 313 313 316 318 316 305 283 263 264 270 247 255 243 235 266 270 325
290 274 327 125 313 243 204 218 237 302 290 324 323 327 64 20 17 354 337 288 324 330 313 305 302 311 319 323 317 316 326 315 292 270 247 251 261 245 243 227 239 230 262 287
262 253 258 235 239 274 288 302 303 334 327 343 350 42 47 13 48 6 341 356 6 352 303 271 311 324 327 335 339 336 327 317 291 259 244 245 269 246 246 221 225 226 242 260
236 233 199 252 286 280 291 323 321 347 344 352 26 33 39 8 85 17 348 324 305 297 255 300 321 338 351 346 347 352 4 8 333 288 236 228 229 175 163 164 194 183 176 205
233 244 236 254 268 271 279 295 331 347 348 329 51 46 226 356 35 348 233 292 273 295 307 336 344 356 2 2 359 2 1 15 25 334 255 240 232 218 218 215 174 152 201 228
Wind_Speed_850mb
60 59 58 51 49 49 37 20 6 18 19 5 2 1 7 9 22 36 23 16 15 17 26 26 14 21 20 49 39 17 46 9 19 34 8 39 36 18 42 22 14 6 12 18
56 57 57 52 50 49 38 25 11 15 34 5 2 6 18 24 28 27 9 11 18 20 22 12 13 21 25 44 38 22 13 32 8 16 3 10 41 38 26 14 9 17 17 16
59 55 53 51 47 44 36 13 7 9 5 4 6 9 14 6 20 21 22 18 18 21 23 20 15 26 20 56 41 28 17 10 55 34 25 16 15 38 29 27 13 11 28 10
59 58 52 47 45 39 31 6 6 9 6 7 14 7 12 17 15 19 26 10 16 19 16 26 32 34 38 32 13 21 14 16 39 58 35 8 13 36 41 34 29 29 16 21
62 58 51 46 43 37 19 9 8 14 19 24 11 10 7 23 15 7 15 11 23 19 15 30 29 23 11 14 12 23 13 12 11 41 58 52 32 18 48 42 19 16 25 13
62 56 48 46 40 33 11 14 24 17 14 7 4 5 17 12 20 24 11 21 14 18 28 25 29 27 18 18 27 17 8 9 13 40 40 41 37 46 20 31 37 24 16 16
62 56 47 42 40 28 23 19 19 5 9 6 7 23 28 28 26 20 31 25 10 13 52 27 16 26 31 23 34 32 14 5 6 12 12 21 26 24 29 31 36 35 15 19
60 56 49 35 34 30 26 15 11 4 8 10 26 24 21 36 39 22 23 37 40 46 20 5 8 8 8 12 35 34 35 14 8 6 28 10 22 17 26 17 19 25 34 21
59 60 51 38 27 28 26 22 21 12 10 9 26 13 27 12 10 11 22 56 51 18 7 5 6 5 8 6 23 21 33 30 8 7 12 27 12 12 16 15 20 20 22 26
61 61 58 40 27 23 29 27 19 27 15 28 18 16 14 13 12 8 15 23 21 20 4 3 5 3 6 3 11 13 4 10 23 10 8 10 11 14 14 27 20 13 42 35
68 65 57 39 30 21 27 30 15 23 20 57 26 14 34 42 20 6 14 13 5 6 6 1 4 3 6 5 5 9 7 9 4 7 9 5 40 12 10 11 14 51 56 59
72 67 50 36 27 25 22 36 19 23 34 57 72 59 28 41 49 31 9 6 7 7 4 5 5 4 2 10 3 9 3 8 11 9 5 23 18 30 41 43 25 18 62 75
76 65 49 34 27 25 26 34 28 27 26 52 10 15 25 31 24 43 13 11 12 7 6 2 4 7 4 3 4 8 10 14 7 23 4 40 38 75 77 75 61 39 44 84
71 65 47 34 25 24 25 28 20 19 17 11 21 43 33 16 20 26 39 40 31 30 17 3 5 6 1 5 9 5 8 6 13 17 21 48 28 71 70 78 66 52 8 46
67 57 42 34 26 20 18 19 4 12 8 9 29 44 17 10 15 23 29 44 49 45 5 5 7 7 3 1 3 6 11 7 2 7 29 21 38 67 66 79 73 55 46 23
59 45 34 28 26 19 15 5 1 5 3 13 8 20 23 14 28 28 30 38 45 36 10 8 11 10 9 5 6 6 16 15 2 12 38 52 57 54 62 71 79 60 38 38
53 32 22 24 25 20 10 8 12 15 22 10 10 9 12 36 28 23 20 10 18 28 18 9 10 15 6 4 5 5 24 26 24 27 32 43 30 52 72 73 75 64 51 30
39 27 25 26 26 26 18 14 16 23 19 10 6 8 13 21 16 13 10 10 9 8 14 4 4 9 1 5 16 38 34 34 21 23 36 44 49 53 66 61 68 70 64 60
35 25 24 13 9 12 25 34 23 15 12 7 6 5 7 18 11 11 16 11 4 14 2 4 7 4 5 15 34 44 52 36 34 36 29 29 30 37 53 60 53 62 60 54
37 16 8 6 14 33 30 9 6 5 5 8 4 8 7 9 6 7 13 9 5 5 3 16 3 3 14 48 46 42 53 61 56 40 17 22 13 27 37 60 44 48 51 44
41 22 8 22 19 8 5 6 5 9 5 7 13 20 10 7 4 5 12 5 6 6 6 10 6 5 22 50 50 49 56 54 53 46 44 30 26 24 38 51 39 43 48 43
38 25 23 16 10 6 6 4 10 2 6 10 9 30 1 2 6 5 8 5 6 5 12 5 4 4 40 52 64 63 59 58 58 46 42 36 28 32 38 39 43 43 27 29
20 7 7 7 6 12 9 8 9 6 7 17 35 13 4 3 8 4 3 6 5 15 3 4 6 33 56 64 65 53 71 59 52 48 43 37 26 37 43 54 57 32 25 18
6 5 9 6 8 3 8 9 10 29 18 46 48 5 6 7 8 5 6 5 4 8 7 6 10 46 65 73 56 49 70 57 46 44 40 33 25 41 45 59 50 44 42 33
6 5 4 6 13 23 37 30 17 37 33 52 13 6 8 6 6 7 8 14 8 7 7 6 47 71 55 64 69 69 62 41 27 26 33 30 22 30 32 55 37 38 45 33
7 11 4 16 4 24 25 17 28 29 31 26 8 7 7 8 3 11 4 12 6 6 7 48 61 50 61 68 68 86 79 29 18 15 24 26 13 6 18 25 41 35 20 15
7 11 23 30 33 28 19 19 20 22 20 5 4 5 4 2 6 6 3 3 8 37 51 46 50 34 48 69 70 75 79 64 36 9 13 24 17 7 16 16 10 10 37 32
Wind_Direction_850mb
354 354 354 352 349 350 352 335 328 339 159 103 262 286 240 307 268 308 294 286 279 297 336 302 295 261 315 358 347 271 203 148 242 243 292 206 210 184 210 221 217 207 172 246
357 356 354 353 351 354 347 327 289 354 177 203 123 310 279 261 279 278 256 260 280 287 295 279 303 282 339 334 348 352 319 215 263 324 183 234 202 207 203 182 119 195 184 239
358 355 352 352 351 353 349 338 328 339 307 154 175 249 267 268 295 296 270 288 286 280 292 257 255 275 306 329 322 345 321 249 209 216 221 178 192 206 190 186 189 171 206 170
356 354 351 346 348 350 351 343 293 346 315 314 304 277 288 294 304 255 277 277 265 254 282 289 253 259 296 327 292 2 2 250 210 220 243 245 206 207 199 198 193 192 189 178
356 353 354 351 350 350 359 316 336 340 292 296 306 306 314 317 309 301 297 298 329 321 253 261 282 259 267 285 301 349 346 293 261 217 229 237 250 263 207 208 190 144 162 206
356 354 352 352 347 349 346 313 316 304 275 292 8 252 333 291 301 293 286 311 317 295 292 291 289 205 207 237 278 301 290 331 336 219 215 233 240 239 225 202 193 149 168 196
352 356 354 357 357 349 337 325 326 325 290 323 282 310 303 323 321 301 305 312 280 276 309 267 243 231 234 239 256 229 234 304 270 251 167 220 237 199 220 209 194 181 165 163
349 351 352 349 353 344 340 328 304 277 278 263 298 329 326 315 310 290 288 305 304 304 293 274 275 251 209 264 258 242 204 194 269 234 195 255 227 202 193 173 217 184 180 182
345 346 346 340 341 337 329 326 306 261 282 256 308 308 306 299 309 317 293 316 320 288 184 174 245 262 120 281 314 292 182 203 201 327 155 215 213 177 179 144 215 186 160 189
345 342 340 335 328 325 323 328 318 268 260 277 288 295 282 277 313 271 303 337 333 354 200 141 250 160 85 141 301 347 199 186 219 236 284 290 236 197 103 180 221 171 182 189
342 341 336 329 322 309 306 315 306 289 271 290 271 258 276 292 266 248 295 333 346 312 343 150 307 208 147 162 232 315 283 321 221 189 228 100 347 297 108 283 256 194 201 193
340 339 335 329 320 308 290 292 313 302 281 278 294 291 276 280 266 253 275 245 221 234 293 2 291 264 164 163 267 140 308 19 308 322 355 310 329 46 359 10 328 242 202 207
342 340 339 328 317 304 292 294 323 315 292 311 279 292 304 310 280 246 222 250 228 225 260 309 291 272 339 231 234 110 212 274 264 332 345 325 353 9 7 10 358 329 224 204
343 341 343 332 309 295 290 291 318 301 297 293 288 315 326 345 339 239 240 263 261 284 285 264 288 232 194 9 0 300 188 270 343 268 332 331 352 1 359 355 1 15 296 205
343 342 346 343 330 315 303 307 290 257 273 278 290 320 326 342 309 276 253 248 254 265 258 165 229 287 31 16 156 266 193 193 178 288 319 295 309 328 334 348 354 8 12 80
342 339 348 355 350 339 335 315 254 203 191 302 301 309 307 330 329 317 260 239 248 231 236 231 242 218 147 164 261 293 152 172 193 253 280 288 304 332 340 344 355 358 0 18
339 328 338 347 346 343 313 310 304 252 295 281 295 283 280 334 323 319 313 269 235 224 233 247 257 277 241 251 242 220 211 235 234 255 299 292 311 328 334 341 353 5 5 9
341 326 318 321 314 319 318 323 297 270 274 260 268 279 336 337 321 329 315 313 303 238 212 254 243 313 204 247 325 344 310 281 295 275 258 285 303 311 322 328 343 356 3 6
342 321 317 319 342 316 330 323 309 280 248 273 277 323 304 313 292 319 327 349 340 325 10 270 143 284 287 357 343 341 333 335 331 315 267 245 295 305 315 324 333 340 350 2
350 342 347 347 335 324 321 320 303 318 249 260 316 290 274 285 299 353 346 350 338 324 199 299 194 151 95 2 345 329 318 314 319 330 319 220 281 305 292 309 310 321 341 356
357 344 324 322 323 323 308 315 26 340 299 250 253 263 285 328 335 345 13 338 326 328 354 343 329 356 340 335 327 328 324 314 300 296 286 284 254 278 256 280 286 316 335 359
327 310 305 336 356 335 32 338 327 331 269 282 254 314 161 65 36 37 8 339 323 299 348 304 263 259 322 321 320 310 317 312 300 283 280 270 263 261 255 265 258 283 307 352
325 312 323 340 339 33 20 331 299 269 249 287 316 320 339 57 29 87 19 340 298 309 289 286 276 304 314 313 313 316 318 316 305 283 263 264 270 247 255 243 235 266 270 325
290 274 327 125 313 243 204 218 237 302 290 324 323 327 64 20 17 354 337 288 324 330 313 305 302 311 319 323 317 316 326 315 292 270 247 251 261 245 243 227 239 230 262 287
262 253 258 235 239 274 288 302 303 334 327 343 350 42 47 13 48 6 341 356 6 352 303 271 311 324 327 335 339 336 327 317 291 259 244 245 269 246 246 221 225 226 242 260
236 233 199 252 286 280 291 323 321 347 344 352 26 33 39 8 85 17 348 324 305 297 255 300 321 338 351 346 347 352 4 8 333 288 236 228 229 175 163 164 194 183 176 205
233 244 236 254 268 271 279 295 331 347 348 329 51 46 226 356 35 348 233 292 273 295 307 336 344 356 2 2 359 2 1 15 25 334 255 240 232 218 218 215 174 152 201 228